AirNav   TITAN Aviation Fuels
 
 1423 users online  

29D Grove City Airport
Grove City, Pennsylvania, USA

GOING TO GROVE CITY?


FAA INFORMATION EFFECTIVE 22 APRIL 2021

Location

FAA Identifier: 29D
Lat/Long: 41-08-45.7000N 080-10-03.9000W
41-08.761667N 080-10.065000W
41.1460278,-80.1677500
(estimated)
Elevation: 1370 ft. / 417.6 m (surveyed)
Variation: 09W (2010)
From city: 3 miles W of GROVE CITY, PA
Time zone: UTC -4 (UTC -5 during Standard Time)
Zip code: 16137

Airport Operations

Airport use: Open to the public
Activation date: 02/1975
Control tower: no
ARTCC: CLEVELAND CENTER
FSS: ALTOONA FLIGHT SERVICE STATION
NOTAMs facility: AOO (NOTAM-D service available)
Attendance: MON-FRI 0800-1600
UNATNDD THANKSGIVING, CHRISTMAS & NEW YEAR'S DAY.
Wind indicator: lighted
Segmented circle: yes
Lights: ACTVT PAPI RWY 10 & 28; MIRL RWY 10/28 - CTAF.
Beacon: white-green (lighted land airport)
Operates sunset to sunrise.

Airport Communications

CTAF/UNICOM: 122.725
YOUNGSTOWN APPROACH: 133.95
YOUNGSTOWN DEPARTURE: 133.95
WX AWOS-3PT at UCP (13 nm SW): 124.175 ((724) 652-4184)
WX AWOS-3PT at FKL (20 nm NE): 118.175 ((814) 437-2066)
  • APCH/DEP SVC PRVDD BY CLEVELAND ARTCC (ZOB) ON FREQS 126.725/291.65 (DUBOIS RCAG) WHEN YOUNGSTOWN APCH CTL CLSD.
  • COMMUNICATIONS PRVDD BY ALTOONA RADIO ON FREQS 122.1R/115.8T (ELLWOOD CITY RCO).

Nearby radio navigation aids

VOR radial/distance  VOR name  Freq  Var
EWCr014/19.4ELLWOOD CITY VOR/DME115.8008W
FKLr225/(22.5)FRANKLIN VOR109.6006W
YNGr121/25.4YOUNGSTOWN VORTAC109.0005W

 
NDB name  Hdg/Dist  Freq  Var  ID
CASTLE066/13.427209WUCP ..- -.-. .--.

Airport Services

Fuel available: 100LL JET-A
24 HR FUEL AVBL WITH CREDIT CARD.
JET-A ANTI-ICE INHIBITOR AVBL ON REQ.
Parking: hangars and tiedowns
Bottled oxygen: NONE

Runway Information

Runway 10/28

Dimensions: 4500 x 75 ft. / 1372 x 23 m
Surface: asphalt, in good condition
Weight bearing capacity: 
Single wheel: 12.5
Runway edge lights: medium intensity
RUNWAY 10  RUNWAY 28
Latitude: 41-08.776833N41-08.748333N
Longitude: 080-10.555333W080-09.575667W
Elevation: 1370.0 ft.1297.0 ft.
Traffic pattern: leftleft
Runway heading: 101 magnetic, 092 true281 magnetic, 272 true
Markings: nonprecision, in good conditionnonprecision, in good condition
Visual slope indicator: 2-light PAPI on left (3.80 degrees glide path)
RWY 10 PAPI UNUSABLE BEYOND 5 DEGREES LEFT OF RUNWAY CENTERLINE.
2-light PAPI on left (3.00 degrees glide path)
Runway end identifier lights: yesyes
Touchdown point: yes, no lightsyes, no lights
Obstructions: 14 ft. brush, 320 ft. from runway, 112 ft. left of centerline, 8:1 slope to clearnone
RWY 28 3 FT BRUSH 185 FT FM THR 92 FT RT. 7 FT BRUSH 82 FT FM THR 143 FT LT.

Airport Ownership and Management from official FAA records

Ownership: Publicly-owned
Owner: BOROUGH OF GROVE CITY
123 W MAIN ST. P.O. BOX 110
GROVE CITY, PA 16127
Phone 724-458-7060
Manager: MICHAEL BAUN
GROVE CITY AIRPORT, 40 OAKLEY KELLY DRIVE
MERCER, PA 16137-8411
Phone 724-748-5530

Airport Operational Statistics

Aircraft based on the field: 19
Single engine airplanes: 14
Multi engine airplanes: 3
Jet airplanes: 1
Helicopters: 1
    
Aircraft operations: avg 35/day *
59% transient general aviation
39% local general aviation
2% air taxi
<1% military
* for 12-month period ending 22 September 2020

Additional Remarks

DEER & GEESE ON AND INVOF ARPT.
DRAINAGE RAVINE 15 FT DEEP LCTD IN SAFETY AREA NORTH OF RY 10.
TWY LGTS STUB TO APRON.
AVOID OVERFLYING FLD DURG DALGT VFR BECAUSE OF PARACHUTE JUMPING ACTIVITY NW CORNER OF FLD.
FOR CD CTC YOUNGSTOWN APCH AT 330-856-4806, WHEN APCH CLSD CTC CLEVELAND ARTCC AT 440-774-0234.
PORTABLE GROUND PWR UNIT AVBL.

Instrument Procedures

NOTE: All procedures below are presented as PDF files. If you need a reader for these files, you should download the free Adobe Reader.

NOT FOR NAVIGATION. Please procure official charts for flight.
FAA instrument procedures published for use from 22 April 2021 at 0901Z to 20 May 2021 at 0900z.

 
IAPs - Instrument Approach Procedures
RNAV (GPS) RWY 10   download (200KB)
RNAV (GPS) RWY 28   download (207KB)
NOTE: Special Take-Off Minimums/Departure Procedures apply   download (477KB)

Other nearby airports with instrument procedures:

KUCP - New Castle Municipal Airport (13 nm SW)
KFKL - Venango Regional Airport (20 nm NE)
KPJC - Zelienople Municipal Airport (21 nm S)
4G1 - Greenville Municipal Airport (21 nm NW)
KYNG - Youngstown-Warren Regional Airport (24 nm W)
 
Loc | Ops | Rwys | IFR | FBO | Links
Com | Nav | Svcs | Stats | Notes
Area around 29D (Grove City Airport)
 
Road maps at: MapQuest Bing Google
 
Aerial photo
WARNING: Photo may not be current or correct
Aerial photo of 29D (Grove City Airport)
Photo by Bill Pixley
Photo taken 20-Aug-2017
looking west-northwest.

Do you have a better or more recent aerial photo of Grove City Airport that you would like to share? If so, please send us your photo.

 
Sectional chart

 
Airport distance calculator
Flying to Grove City Airport? Find the distance to fly.

From to 29D

Sunrise and sunset
Times for 11-May-2021
 Local
(UTC-4)
 Zulu
(UTC)
Morning civil twilight05:3709:37
Sunrise06:0710:07
Sunset20:2700:27
Evening civil twilight20:5800:58

Current date and time
Zulu (UTC)  11-May-2021 13:50:22
Local (UTC-4)  11-May-2021 09:50:22
 
METAR
KUCP 
13nm SW 
111256Z AUTO 27009KT 10SM SCT020 BKN110 08/04 A3015 RMK AO2 SLP228 T00830044
KFKL 
19nm NE 
111256Z AUTO 28006KT 10SM SCT060 07/03 A3013 RMK AO2 SLP209 T00670033
KPJC 
21nm S 
111335Z AUTO 25006KT 10SM CLR 10/03 A3016 RMK AO2
KYNG 
23nm W 
111251Z 28008KT 10SM FEW050 BKN130 08/04 A3014 RMK AO2 SLP212 T00830039
KBTP 
25nm SE 
111256Z AUTO 26006KT 10SM SCT031 08/04 A3014 RMK AO2 SLP216 P0001 T00830044
KBVI 
25nm SW 
111335Z AUTO 28007G14KT 10SM CLR 09/05 A3016 RMK AO2 T00940045
TAF
KFKL 
19nm NE 
111120Z 1112/1212 26004KT P6SM OVC100 FM111600 29010KT P6SM BKN060 FM120000 28006KT P6SM SCT100 FM120700 30007KT P6SM SCT030
KYNG 
23nm W 
111124Z 1112/1212 VRB02KT P6SM FEW035 BKN100 FM111500 30012G22KT P6SM FEW040 SCT100 FM112300 31009KT P6SM FEW030 BKN100 FM120600 VRB03KT P6SM FEW035
NOTAMs
Click for the latest NOTAMs
NOTAMs are issued by the DoD/FAA and will open in a separate window not controlled by AirNav.

 

 
 

FBO, Fuel Providers, and Aircraft Ground Support

  
 Business Name 
 
 Contact 
 
 Services / Description 
 
Fuel Prices
 
Comments
  
Grove City Aviation, Inc. 724-748-5530
no information available

If you are affiliated with Grove City Aviation, Inc. and would like to show here your services, contact info, web link, logo, and more, click here
100LL Jet A
FS $5.50 $4.10 
 Updated 29-Mar-2021
 
   1 read write
FS=Full service
Update Fuel Prices
 

Would you like to see your business listed on this page?

 If your business provides an interesting product or service to pilots, flight crews, aircraft, or users of the Grove City Airport, you should consider listing it here.  To start the listing process, click on the button below
 
Add a business
 

Other Pages about Grove City Airport

Update a link
 
Copyright © AirNav, LLC. All rights reserved. Privacy Policy  Contact